DateTimeUTC,F1_A11,F1_S11,BsB_S11,BsG_S11,BsR_S11,BbsB_S11,BbsG_S11,BbsR_S11,BaB_A11,BaG_A11,BaR_A11,Tu_S11,T_S11,Uu_S11,U_S11,P_S11,T1_A11
2021-04-18T14:00:00Z,00040200,21000000,,,,,,,-000.03,0000.14,0000.09,17.5,24.6,,00.0,0649.4,31.0
2021-04-18T14:01:00Z,00040200,21000000,,,,,,,0000.26,0000.13,-000.04,17.5,24.6,,00.0,0649.4,31.0
2021-04-18T14:02:00Z,00040200,21000000,,,,,,,0000.42,0000.23,0000.49,17.5,24.6,,00.0,0649.4,31.0
2021-04-18T14:03:00Z,00040200,61000000,,,,,,,-000.25,-000.08,-000.49,17.5,24.6,,00.0,0649.4,31.0
2021-04-18T14:04:00Z,00040200,41000000,0000.56,0000.65,0000.32,-000.16,-000.16,0000.21,-000.24,-000.03,0000.13,17.6,24.5,00.2,00.1,0650.4,31.0
2021-04-18T14:05:00Z,00040200,01000000,0000.89,0000.83,0000.35,-000.12,0000.11,0000.11,-000.35,-000.07,-000.25,17.7,24.4,00.2,00.1,0650.5,31.0
2021-04-18T14:06:00Z,00040200,01000000,0000.90,0000.50,0000.44,0000.23,-000.19,0000.27,0000.29,0000.03,-000.05,17.7,24.4,00.1,00.0,0650.5,31.0
2021-04-18T14:07:00Z,00040200,01000000,0000.30,0000.45,0000.40,0000.37,-000.12,0000.05,0000.48,0000.09,0000.63,17.7,24.4,00.1,00.1,0650.5,31.0
2021-04-18T14:08:00Z,00040200,01000000,0001.19,0000.53,0000.63,-000.10,0000.02,0000.03,0000.74,0000.55,0000.29,17.7,24.4,00.1,00.1,0650.5,31.0
2021-04-18T14:09:00Z,00040200,01000000,0000.73,0000.75,0000.50,-000.39,-000.03,-000.16,0000.03,0000.41,0000.23,17.7,24.4,00.2,00.2,0650.5,31.0
2021-04-18T14:10:00Z,00040200,01000000,0001.08,0000.71,0000.42,-000.17,0000.04,0000.03,0000.58,0000.13,0000.53,17.7,24.4,00.2,00.1,0650.5,31.0
2021-04-18T14:11:00Z,00040200,01000000,0001.12,0000.51,0000.10,-000.11,0000.17,-000.24,-000.04,0000.08,-000.24,17.7,24.4,00.2,00.1,0650.5,31.0
2021-04-18T14:12:00Z,00040200,01000000,0001.64,0000.54,0000.26,-000.25,0000.17,-000.13,0000.16,-000.16,0000.07,17.7,24.4,00.3,00.2,0650.5,31.0
2021-04-18T14:13:00Z,00040200,01000000,0000.60,0000.64,0000.32,-000.16,-000.13,0000.20,0000.03,0000.74,0000.41,17.7,24.4,00.2,00.1,0650.5,31.0
2021-04-18T14:14:00Z,00040200,01000000,0000.54,0000.78,0000.34,0000.14,-000.02,0000.05,0000.41,0000.08,-000.29,17.7,24.4,00.2,00.1,0650.5,31.0
2021-04-18T14:15:00Z,00040200,01000000,0000.74,0000.49,0000.42,-000.16,-000.21,0000.06,0000.23,0000.38,0000.72,17.7,24.4,00.3,00.2,0650.5,31.0
2021-04-18T14:16:00Z,00040200,01000000,0000.97,0000.49,0000.25,-000.56,-000.09,-000.12,0000.61,0000.74,0000.40,17.7,24.4,00.3,00.2,0650.5,31.0
2021-04-18T14:17:00Z,00040200,01000000,0000.80,0000.53,0000.22,-000.33,-000.12,-000.07,0000.21,0000.12,0000.19,17.7,24.4,00.3,00.2,0650.5,31.0
2021-04-18T14:18:00Z,00040200,01000000,0000.48,0000.30,0000.45,-000.54,0000.19,0000.12,0000.59,0000.43,0000.34,17.7,24.4,00.3,00.2,0650.4,31.0
2021-04-18T14:19:00Z,00040200,01000000,0000.48,0000.39,0000.43,-000.16,-000.07,0000.03,0000.33,0000.24,0000.53,17.7,24.4,00.4,00.3,0650.4,31.0
2021-04-18T14:20:00Z,00040200,01000000,0000.63,0000.34,0000.45,-000.07,0000.01,-000.02,0000.49,0000.11,-000.22,17.7,24.4,00.5,00.3,0650.4,31.0
2021-04-18T14:21:00Z,00040200,01000000,0000.68,0000.48,0000.46,-000.10,0000.05,0000.12,0000.28,0000.53,0000.47,17.7,24.4,00.4,00.3,0650.4,31.0
2021-04-18T14:22:00Z,00040200,01000000,0000.65,0000.40,0000.15,-000.34,0000.01,0000.04,-000.28,-000.13,-000.34,17.7,24.5,00.5,00.3,0650.5,31.0
2021-04-18T14:23:00Z,00040200,01000000,0001.28,0000.60,0000.56,-000.18,0000.11,0000.21,-000.28,-000.21,-000.03,17.7,24.4,00.4,00.3,0650.5,31.0
2021-04-18T14:24:00Z,00040200,01000000,0000.93,0000.66,0000.23,-000.09,0000.18,-000.18,-000.08,-000.25,-000.41,17.7,24.4,00.3,00.2,0650.5,31.0
2021-04-18T14:25:00Z,00040200,01000000,0001.41,0000.53,0000.21,0000.20,0000.07,-000.14,0000.27,0000.62,0000.78,17.7,24.4,00.3,00.2,0650.4,31.0
2021-04-18T14:26:00Z,00040200,01000000,0001.67,0000.48,0000.25,0000.19,-000.14,0000.12,0000.37,-000.08,0000.08,17.7,24.4,00.3,00.2,0650.4,31.0
2021-04-18T14:27:00Z,00040200,01000000,0001.16,0000.57,0000.17,0000.40,0000.04,-000.23,0000.68,0000.55,0000.26,17.8,24.4,00.4,00.3,0650.4,31.0
2021-04-18T14:28:00Z,00040200,01000000,0000.72,0000.54,0000.38,-000.35,0000.11,-000.02,0000.18,0000.66,0000.45,17.8,24.4,00.5,00.3,0650.4,31.0
2021-04-18T14:29:00Z,00040200,01000000,0000.57,0000.58,0000.78,-000.33,0000.10,-000.15,0000.32,-000.02,0000.01,17.8,24.4,00.5,00.3,0650.4,31.0
2021-04-18T14:30:00Z,00040200,01000000,-000.01,0000.55,0000.08,-000.48,0000.18,-000.00,0000.54,0000.41,-000.08,17.8,24.4,00.5,00.3,0650.4,31.0
2021-04-18T14:31:00Z,00040200,01000000,0000.11,0000.69,0000.07,0000.33,-000.24,0000.11,0000.07,-000.28,0000.37,17.8,24.5,00.5,00.3,0650.5,31.0
2021-04-18T14:32:00Z,00040200,01000000,0000.73,0000.60,0000.35,-000.35,-000.00,-000.11,0000.36,0001.02,0000.39,17.8,24.4,00.4,00.3,0650.4,31.0
2021-04-18T14:33:00Z,00040200,01000000,0000.71,0000.48,0000.16,-000.26,0000.01,-000.08,0000.22,-000.09,-000.05,17.8,24.4,00.6,00.4,0650.5,31.0
2021-04-18T14:34:00Z,00040200,01000000,0000.95,0000.42,0000.13,0000.16,-000.02,-000.13,-000.34,-000.04,0000.08,17.8,24.5,00.5,00.3,0650.5,31.0
2021-04-18T14:35:00Z,00040200,01000000,0000.10,0000.42,0000.48,-000.07,0000.07,0000.32,0000.59,-000.02,0000.08,17.8,24.5,00.6,00.4,0650.4,31.1
2021-04-18T14:36:00Z,00040200,01000000,0000.71,0000.48,0000.64,0000.41,-000.03,0000.16,0000.34,0000.84,0000.26,17.8,24.5,00.6,00.4,0650.5,31.0
2021-04-18T14:37:00Z,00040200,01000000,0001.22,0000.84,0000.19,-000.40,0000.03,0000.01,0000.46,0000.44,0000.30,17.8,24.5,00.7,00.4,0650.4,31.0
2021-04-18T14:38:00Z,00040200,01000000,0000.75,0000.41,0000.31,-000.12,0000.22,0000.09,0000.20,-000.05,0000.07,17.8,24.5,00.6,00.4,0650.4,31.0
2021-04-18T14:39:00Z,00040200,01000000,0001.17,0000.63,0000.33,-000.52,-000.10,-000.05,0000.26,0000.19,0000.58,17.8,24.5,00.5,00.3,0650.5,31.0
2021-04-18T14:40:00Z,00040200,01000000,0000.77,0000.70,0000.16,-000.28,0000.08,0000.22,0000.46,0000.72,0000.25,17.8,24.5,00.7,00.4,0650.5,31.0
2021-04-18T14:41:00Z,00040200,01000000,0000.62,0000.65,0000.42,-000.17,-000.04,-000.13,-000.05,-000.05,-000.04,17.8,24.5,00.7,00.5,0650.5,31.0
2021-04-18T14:42:00Z,00040200,01000000,0000.74,0000.42,0000.23,-000.16,-000.16,-000.05,-000.05,-000.17,0000.00,17.8,24.5,00.6,00.4,0650.5,31.0
2021-04-18T14:43:00Z,00040200,01000000,0001.32,0000.20,0000.37,0000.31,-000.11,0000.22,0000.12,0000.20,0000.24,17.8,24.5,00.7,00.4,0650.5,31.0
2021-04-18T14:44:00Z,00040200,01000000,0000.56,0000.72,0000.17,-000.09,-000.10,0000.07,0000.69,0000.73,0000.32,17.8,24.5,00.7,00.5,0650.5,31.0
2021-04-18T14:45:00Z,00040200,01000000,0000.87,0000.45,0000.28,-000.17,-000.06,0000.08,-000.25,-000.35,-000.05,17.8,24.5,00.6,00.4,0650.5,31.0
2021-04-18T14:46:00Z,00040200,01000000,0000.56,0000.61,0000.39,-000.39,0000.04,-000.16,0000.60,0000.42,0000.45,17.8,24.5,00.8,00.5,0650.5,31.0
2021-04-18T14:47:00Z,00040200,01000000,0000.87,0000.50,-000.06,0000.04,0000.05,-000.13,0000.50,0000.08,-000.18,17.8,24.5,00.8,00.5,0650.5,31.0
2021-04-18T14:48:00Z,00040200,01000000,0000.29,0000.38,0000.31,-000.31,0000.16,-000.24,-000.32,0000.41,0000.28,17.9,24.5,00.7,00.5,0650.5,31.0
2021-04-18T14:49:00Z,00040200,01000000,0001.05,0000.71,0000.31,-000.48,-000.27,-000.10,0000.44,0000.14,0000.22,17.9,24.5,00.7,00.5,0650.5,31.0
2021-04-18T14:50:00Z,00040200,01000000,0001.40,0000.40,0000.58,0000.31,0000.09,-000.20,0000.24,0000.45,0000.40,17.9,24.5,00.6,00.4,0650.5,31.0
2021-04-18T14:51:00Z,00040200,01000000,0001.17,0000.50,0000.48,-000.11,0000.06,-000.33,0000.44,0000.28,0000.17,17.9,24.5,00.8,00.5,0650.5,31.0
2021-04-18T14:52:00Z,00040200,01000000,0000.88,0000.45,0000.26,0000.05,-000.02,-000.14,-000.04,-000.22,-000.12,17.9,24.5,00.7,00.5,0650.5,31.0
2021-04-18T14:53:00Z,00040200,01000000,0000.34,0000.36,0000.18,-000.70,0000.02,-000.24,-000.10,0000.22,0000.22,17.9,24.5,00.8,00.5,0650.5,31.0
2021-04-18T14:54:00Z,00040200,01000000,0001.10,0000.59,0000.45,-000.04,-000.04,0000.31,0000.37,0000.06,-000.13,17.9,24.5,00.7,00.5,0650.5,31.0
2021-04-18T14:55:00Z,00040200,01000000,0000.87,0000.34,0000.25,-000.19,-000.17,0000.13,0000.41,0000.18,0000.12,17.9,24.5,00.6,00.4,0650.5,31.0
2021-04-18T14:56:00Z,00040200,01000000,0001.33,0000.57,0000.19,0000.01,-000.09,0000.23,0000.01,0000.20,0000.26,17.9,24.5,00.6,00.4,0650.5,31.0
2021-04-18T14:57:00Z,00040200,41000000,,,,,,,-000.57,-000.53,-000.34,17.9,24.6,01.2,00.8,0650.6,31.0
2021-04-18T14:58:00Z,00040200,61000000,,,,,,,0000.28,0000.28,0000.19,17.7,24.7,00.5,00.3,0649.5,31.0
2021-04-18T14:59:00Z,00040200,21000000,,,,,,,0000.35,0000.42,0000.59,17.7,24.8,00.6,00.4,0649.5,31.0
